Location: ???? ????
(41.4149°N, 22.8816°E)
Time: 15:05:15
(UTC+00:00)

ATLAS 5 CENTAUR R/B - Pass Details

Date: 14 July 2020
Orbit: 534 x 1124 km, 63.4° (Epoch: 30 July)

Event Time Altitude Azimuth Distance (km) Brightness Sun altitude
Rises 01:37:16 0° 324° (NW) 3,338 5.4 -14.1°
Reaches altitude 10° 01:39:33 10° 324° (NW) 2,488 4.8 -13.8°
Maximum altitude 01:45:27 86° 236° (SW) 963 2.4 -13.0°
Drops below altitude 10° 01:52:15 10° 149° (SSE) 2,858 4.8 -12.1°
Sets 01:55:02 0° 149° (SSE) 3,864 5.5 -11.7°
